Meteo Giornale » Osservazioni meteo Stati Uniti (USA) » Oahu Kalaeloa
ore: 19:53 - Osservazioni Meteo Oahu Kalaeloa
Lat. 21° 18' N Lon. 158° 4' W Alt. 10 metri s.l.m.
26 °C
Sereno
Temp. 24 Ore
23 °C
31 °C
Nord-Est
11.1 Km/h
Dew point 19 °C
Umidità 65 %
Visibilità 10 Km
Il sole sorge alle ore 06:15
Il sole tramonta alle ore 18:49
| Data e Ora | Cielo e Fenomeni | T °C | DP °C | Um. % | Pres. hPa | Vis. km | Vento km/h | |
|---|---|---|---|---|---|---|---|---|
| Oggi h: 19:53 | Sereno | 26 | 19 | 65 | 1015 | 10 | NE 11.1 | |
| Oggi h: 18:53 | Sereno | 27 | 19 | 61 | 1015 | 10 | E/NE 16.7 | |
| Oggi h: 17:53 | Sereno | 28 | 19 | 58 | 1014 | 10 | E/NE 18.5 | |
| Oggi h: 16:53 | Sereno | 29 | 19 | 54 | 1014 | 10 | E/NE 20.3 | |
| Oggi h: 15:53 | Sereno | 30 | 18 | 48 | 1014 | 10 | NE 18.5 | |
| Oggi h: 14:53 | Poco Nuvoloso | 31 | 19 | 48 | 1014 | 10 | NE 16.7 | |
| Oggi h: 13:53 | Sereno | 31 | 19 | 48 | 1014 | 10 | NE 24 | |
| Oggi h: 12:53 | Nuvoloso | 31 | 19 | 48 | 1015 | 10 | E/NE 22.2 | |
| Oggi h: 11:53 | Poco Nuvoloso | 31 | 19 | 48 | 1016 | 10 | NE 18.5 | |
| Oggi h: 10:53 | Nuvoloso | 31 | 19 | 48 | 1016 | 10 | NE 14.8 | |
| Oggi h: 09:53 | Nuvoloso | 29 | 19 | 54 | 1017 | 10 | NE 18.5 | |
| Oggi h: 08:53 | Sereno | 28 | 19 | 58 | 1017 | 10 | NE 13 | |
| Oggi h: 07:53 | Sereno | 27 | 20 | 65 | 1016 | 10 | E 11.1 | |
| Oggi h: 06:53 | Molto Nuvoloso | 25 | 19 | 69 | 1016 | 10 | N 5.5 | |
| Oggi h: 05:53 | Sereno | 23 | 19 | 78 | 1016 | 10 | N 5.5 | |
| Oggi h: 04:53 | Sereno | 23 | 21 | 88 | 1015 | 10 | NE 9.3 | |
| Oggi h: 03:53 | Coperto | 23 | 21 | 88 | 1015 | 10 | N 5.5 | |
| Oggi h: 02:53 | Coperto | 23 | 21 | 88 | 1016 | 10 | E/NE 9.3 | |
| Oggi h: 01:53 | Coperto | 25 | 20 | 73 | 1016 | 10 | N 5.5 | |
| Oggi h: 00:53 | Nuvoloso | 24 | 21 | 83 | 1017 | 10 | NE 7.4 | |
| Ieri h: 23:53 | Nuvoloso | 24 | 21 | 83 | 1017 | 10 | E/NE 9.3 | |
| Ieri h: 22:53 | Poco Nuvoloso | 24 | 21 | 83 | 1018 | 10 | N 11.1 | |
| Ieri h: 21:53 | Nuvoloso | 24 | 21 | 83 | 1017 | 10 | NE 13 | |
| Ieri h: 20:53 | Nuvoloso | 24 | 21 | 83 | 1017 | 10 | E/NE 7.4 | |



